FW9117 Weather Reports


time (UTC)temp
C
wind
direction
speed
KPH
gust
KPH
rain 1hr
cm
rain 24hr
cm
rain mn
cm
humidity
%
barometer
mb
20260502185534 16 257 6.4 14.5 0.00 0.00 0.00 46 1008.6
20260502184530 16 252 4.8 11.3 0.00 0.00 0.00 47 1008.7
20260502183525 16 240 4.8 11.3 0.00 0.00 0.00 47 1008.8
20260502182519 15 253 6.4 16.1 0.00 0.00 0.00 47 1009.0
20260502181534 15 248 6.4 20.9 0.00 0.00 0.00 46 1009.2
20260502180609 15 266 6.4 14.5 0.00 0.00 0.00 47 1009.2
20260502170519 15 229 6.4 14.5 0.00 0.00 0.00 45 1009.9
20260502163525 16 249 6.4 12.9 0.00 0.00 0.00 45 1010.1
20260502162540 15 258 6.4 16.1 0.00 0.00 0.00 45 1010.1
20260502161534 15 267 6.4 16.1 0.00 0.00 0.00 47 1010.4
20260502160529 15 252 6.4 12.9 0.00 0.00 0.00 47 1010.6
20260502151522 12 224 6.4 11.3 0.00 0.00 0.00 51 1010.9
20260502150518 12 247 8.0 17.7 0.00 0.00 0.00 51 1011.1
20260502130517 7 222 4.8 6.4 0.00 0.00 0.00 60 1012.7
20260502123523 6 223 3.2 6.4 0.00 0.00 0.00 64 1013.1
20260502122518 6 215 3.2 4.8 0.00 0.00 0.00 66 1013.1
20260502121535 5 217 3.2 3.2 0.00 0.00 0.00 68 1013.2
20260502120530 4 219 3.2 6.4 0.00 0.00 0.00 67 1013.3
20260502115525 3 215 3.2 4.8 0.00 0.00 0.00 69 1013.4
20260502114519 3 222 3.2 4.8 0.00 0.00 0.00 70 1013.6
20260502113555 2 218 1.6 3.2 0.00 0.00 0.00 72 1013.7
20260502112529 2 223 1.6 3.2 0.00 0.00 0.00 73 1013.8
20260502111523 2 226 1.6 3.2 0.00 0.00 0.00 73 1014.0
20260502110518 2 233 1.6 1.6 0.00 0.00 0.00 74 1014.0
20260502105533 2 214 1.6 3.2 0.00 0.00 0.00 73 1014.2
20260502104527 2 201 1.6 3.2 0.00 0.00 0.00 74 1014.4
20260502103522 1 197 1.6 3.2 0.00 0.00 0.00 75 1014.6
20260502102517 1 199 1.6 3.2 0.00 0.00 0.00 78 1014.6
20260502101532 1 199 1.6 3.2 0.00 0.00 0.00 79 1014.7
20260502100528 0 225 0.0 1.6 0.00 0.00 0.00 81 1014.7
20260502091522 0 253 0.0 1.6 0.00 0.00 0.00 82 1015.2
20260502090558 0 250 0.0 1.6 0.00 0.00 0.00 83 1015.3
20260502071523 0 243 0.0 1.6 0.00 0.00 0.00 84 1016.2
20260502070517 1 246 0.0 1.6 0.00 0.00 0.00 83 1016.2
20260502065532 0 247 1.6 3.2 0.00 0.00 0.00 86 1016.4
20260502064528 0 243 1.6 1.6 0.00 0.00 0.00 88 1016.3
20260502063542 0 236 0.0 1.6 0.00 0.00 0.00 89 1016.3
20260502062515 0 232 1.6 1.6 0.00 0.00 0.00 88 1016.4
20260502061530 0 234 1.6 1.6 0.00 0.00 0.00 86 1016.3
20260502060526 0 234 1.6 1.6 0.00 0.00 0.00 87 1016.4
20260502055521 0 237 1.6 1.6 0.00 0.00 0.00 86 1016.5
20260502054517 0 226 1.6 1.6 0.00 0.00 0.00 88 1016.4
20260502053532 0 214 1.6 3.2 0.00 0.00 0.00 88 1016.4
20260502052528 0 218 1.6 1.6 0.00 0.00 0.00 88 1016.5
20260502051523 0 236 1.6 1.6 0.00 0.00 0.00 87 1016.6
20260502050518 0 235 1.6 1.6 0.00 0.00 0.00 87 1016.5
20260502045534 0 238 1.6 1.6 0.00 0.00 0.00 86 1016.6
20260502044548 1 224 1.6 3.2 0.00 0.00 0.00 85 1016.7
20260502043524 1 239 1.6 1.6 0.00 0.00 0.00 83 1016.9
20260502042518 1 231 1.6 1.6 0.00 0.00 0.00 80 1016.9
20260502041533 1 236 0.0 1.6 0.00 0.00 0.00 78 1016.9
20260502040528 1 249 0.0 1.6 0.00 0.00 0.00 75 1016.8
20260502035544 2 205 3.2 3.2 0.00 0.00 0.00 73 1016.8
20260502034519 2 239 1.6 1.6 0.00 0.00 0.00 72 1017.1
20260502033515 2 241 1.6 1.6 0.00 0.00 0.00 70 1017.1
20260502032530 2 238 1.6 1.6 0.00 0.00 0.00 69 1017.1
20260502031526 2 247 0.0 1.6 0.00 0.00 0.00 70 1017.2
20260502030522 3 226 1.6 1.6 0.00 0.00 0.00 68 1017.1
20260502025517 3 0.0 0.0 0.00 0.00 0.00 67 1017.1
20260502024533 3 249 0.0 1.6 0.00 0.00 0.00 66 1017.1
20260502023528 5 244 0.0 1.6 0.00 0.00 0.00 62 1017.1
20260502022523 5 0.0 0.0 0.00 0.00 0.00 59 1017.1
20260502021519 6 0.0 0.0 0.00 0.00 0.00 57 1017.0
20260502020535 6 0.0 0.0 0.00 0.00 0.00 57 1017.0
20260502015529 5 0.0 0.0 0.00 0.00 0.00 55 1017.0
20260502014604 6 0.0 0.0 0.00 0.00 0.00 52 1016.9
20260502013519 7 0.0 0.0 0.00 0.00 0.00 48 1016.9
20260502012534 8 0.0 0.0 0.00 0.00 0.00 46 1016.8
20260502011528 9 346 1.6 3.2 0.00 0.00 0.00 44 1016.8
20260502010524 9 335 1.6 4.8 0.00 0.00 0.00 43 1016.8
20260502005519 10 338 1.6 4.8 0.00 0.00 0.00 42 1016.8
20260502004534 10 325 3.2 6.4 0.00 0.00 0.00 41 1016.9
20260502003529 10 324 1.6 4.8 0.00 0.00 0.00 41 1017.0
20260502002525 10 327 1.6 4.8 0.00 0.00 0.00 40 1017.1
20260502001519 11 292 3.2 6.4 0.00 0.00 0.00 39 1016.9
20260502000554 11 332 3.2 6.4 0.00 0.00 0.00 40 1017.0
20260501235549 11 348 3.2 9.7 0.00 0.00 0.00 40 1017.0
20260501234543 11 265 1.6 3.2 0.00 0.00 0.00 38 1017.1
20260501233517 11 11 6.4 16.1 0.00 0.00 0.00 39 1017.0
20260501232532 11 307 3.2 6.4 0.00 0.00 0.00 38 1017.1
20260501231527 11 301 3.2 6.4 0.00 0.00 0.00 38 1017.1
20260501230523 12 333 4.8 12.9 0.00 0.00 0.00 40 1017.1
20260501225518 11 4 3.2 9.7 0.00 0.00 0.00 39 1017.1
20260501224533 11 1 8.0 12.9 0.00 0.00 0.00 40 1017.0
20260501223528 12 317 3.2 6.4 0.00 0.00 0.00 41 1017.0
20260501222525 11 356 3.2 9.7 0.00 0.00 0.00 40 1017.1
20260501221519 11 315 3.2 6.4 0.00 0.00 0.00 40 1017.2
20260501220635 11 325 4.8 12.9 0.00 0.00 0.00 41 1017.3
20260501215530 11 332 6.4 12.9 0.00 0.00 0.00 41 1017.4
20260501214523 12 7 3.2 9.7 0.00 0.00 0.00 39 1017.4
20260501213518 11 352 3.2 6.4 0.00 0.00 0.00 41 1017.5
20260501212534 11 320 4.8 11.3 0.00 0.00 0.00 42 1017.5
20260501211528 11 338 6.4 16.1 0.00 0.00 0.00 42 1017.5
20260501210524 11 355 6.4 14.5 0.00 0.00 0.00 41 1017.7
20260501205518 11 29 6.4 14.5 0.00 0.00 0.00 39 1017.8
20260501204535 11 346 6.4 14.5 0.00 0.00 0.00 41 1018.0
20260501203530 11 357 4.8 16.1 0.00 0.00 0.00 41 1017.9
20260501202525 11 337 6.4 12.9 0.00 0.00 0.00 43 1018.0
20260501201541 11 330 4.8 11.3 0.00 0.00 0.00 43 1018.1
20260501200516 11 302 3.2 11.3 0.00 0.00 0.00 41 1018.1
20260501195532 11 336 4.8 12.9 0.00 0.00 0.00 43 1018.1
20260501194527 11 254 1.6 6.4 0.00 0.00 0.00 44 1018.1
20260501193520 11 304 1.6 6.4 0.00 0.00 0.00 44 1018.0
20260501192516 10 326 3.2 6.4 0.00 0.00 0.00 44 1018.2
20260501191530 10 310 6.4 11.3 0.00 0.00 0.00 45 1018.2
20260501190525 10 322 4.8 11.3 0.00 0.00 0.00 45 1018.3